Amargosa Valley, NV

5:22 PM PST on January 22, 2017 (GMT -0800)
Mercury

Weather History for KDRA - October, 2011

Change the Weather History Date:

Sunday, October 2, 2011

  Actual Average Record
Temperature  
Mean Temperature 79 °F 69 °F  
Max Temperature 91 °F 83 °F 96 °F (2012)
Min Temperature 68 °F 55 °F 40 °F (2009)
Degree Days  
Heating Degree Days 0    
Cooling Degree Days 14    
Growing Degree Days 29 (Base 50)    
Moisture  
Dew Point 40 °F    
Average Humidity 27    
Maximum Humidity 37    
Minimum Humidity 17    
Precipitation  
Precipitation 0.00 in 0.01 in 0.67 in (1986)
Month to date precipitation 0.02  
Year to date precipitation 4.59  
Sea Level Pressure  
Sea Level Pressure 29.89 in    
Wind  
Wind Speed 8 mph (SSE)    
Max Wind Speed 20 mph    
Max Gust Speed 29 mph    
Visibility 10 miles    
Events      
T = Trace of Precipitation, MM = Missing Value Source: NWS Daily Summary

Daily Weather History Graph

Daily Weather History Graph

Search for Another Location

Airport or City:

Trip Planner

Search our weather history database for the weather conditions in past years. The results will help you decide how hot, cold, wet, or windy it might be!

Date:

Astronomy

Oct. 02, 2011 Rise Set
Actual Time 6:40 AM PDT 6:26 PM PDT
Civil Twilight 6:14 AM PDT 6:52 PM PDT
Nautical Twilight 5:44 AM PDT 7:21 PM PDT
Astronomical Twilight 5:14 AM PDT 7:52 PM PDT
Moon 12:41 PM PDT (10/2) 10:38 PM PDT (10/2)
Length of Visible Light 12h 37m
Length of Day
11h 46m
Waxing Crescent, 36% of the Moon is Illuminated
Oct 2
Waxing Crescent
Oct 3
First Quarter
Oct 11
Full
Oct 19
Last Quarter
Oct 26
New

Hourly Weather History & Observations

Time (PDT) Temp. Dew Point Humidity Pressure Visibility Wind Dir Wind Speed Gust Speed Precip Events Conditions
12:53 AM 71.1 °F 39.9 °F 32% 29.88 in 10.0 mi East 4.6 mph - N/A   Clear
1:53 AM 70.0 °F 39.9 °F 33% 29.90 in 10.0 mi East 5.8 mph - N/A   Clear
2:53 AM 69.1 °F 39.9 °F 35% 29.89 in 10.0 mi East 6.9 mph - N/A   Clear
3:53 AM 70.0 °F 39.9 °F 33% 29.88 in 10.0 mi East 3.5 mph - N/A   Clear
4:53 AM 72.0 °F 39.9 °F 31% 29.88 in 10.0 mi ENE 5.8 mph - N/A   Clear
5:53 AM 69.1 °F 39.9 °F 35% 29.91 in 10.0 mi East 6.9 mph - N/A   Clear
6:53 AM 68.0 °F 41.0 °F 37% 29.92 in 10.0 mi East 8.1 mph - N/A   Clear
7:53 AM 70.0 °F 42.1 °F 36% 29.94 in 10.0 mi ESE 9.2 mph - N/A   Mostly Cloudy
8:53 AM 77.0 °F 42.1 °F 29% 29.94 in 10.0 mi SE 4.6 mph - N/A   Clear
9:53 AM 80.1 °F 42.1 °F 26% 29.95 in 10.0 mi SE 11.5 mph - N/A   Clear
10:53 AM 86.0 °F 39.9 °F 20% 29.94 in 10.0 mi South 13.8 mph 21.9 mph N/A   Clear
11:53 AM 86.0 °F 39.0 °F 19% 29.92 in 10.0 mi South 16.1 mph 25.3 mph N/A   Clear
12:53 PM 86.0 °F 39.9 °F 20% 29.91 in 10.0 mi SSW 16.1 mph 28.8 mph N/A   Partly Cloudy
1:53 PM 90.0 °F 39.0 °F 17% 29.88 in 10.0 mi SSW 12.7 mph 25.3 mph N/A   Mostly Cloudy
2:53 PM 90.0 °F 39.9 °F 17% 29.86 in 10.0 mi SW 19.6 mph 27.6 mph N/A   Clear
3:53 PM 88.0 °F 39.9 °F 18% 29.85 in 10.0 mi SW 17.3 mph 27.6 mph N/A   Scattered Clouds
4:53 PM 87.1 °F 39.0 °F 18% 29.84 in 10.0 mi SW 16.1 mph 24.2 mph N/A   Clear
5:53 PM 84.0 °F 39.9 °F 21% 29.84 in 10.0 mi SW 16.1 mph 21.9 mph N/A   Clear
6:53 PM 82.0 °F 41.0 °F 23% 29.84 in 10.0 mi SSW 11.5 mph - N/A   Clear
7:53 PM 79.0 °F 41.0 °F 26% 29.85 in 10.0 mi SSE 4.6 mph - N/A   Clear
8:53 PM 77.0 °F 41.0 °F 28% 29.86 in 10.0 mi Calm Calm - N/A   Clear
9:53 PM 75.9 °F 41.0 °F 29% 29.86 in 10.0 mi Variable 3.5 mph - N/A   Clear
10:53 PM 73.0 °F 42.1 °F 33% 29.86 in 10.0 mi Calm Calm - N/A   Clear
11:53 PM 73.9 °F 42.1 °F 32% 29.86 in 10.0 mi South 3.5 mph - N/A   Clear